Weather History for Fairmont, MN

Change the Weather History Date:

Saturday, December 14, 2013

  Actual Average Record
Temperature  
Mean Temperature 8 °F -  
Max Temperature 12 °F 28 °F 57 °F (2002)
Min Temperature 3 °F 12 °F -17 °F (1972)
Degree Days  
Heating Degree Days 56    
Moisture  
Dew Point 6 °F    
Average Humidity 79    
Maximum Humidity 92    
Minimum Humidity 67    
Precipitation  
Precipitation 0.00 in - - ()
Sea Level Pressure  
Sea Level Pressure 30.14 in    
Wind  
Wind Speed 11 mph (NNW)    
Max Wind Speed 21 mph    
Max Gust Speed 26 mph    
Visibility 9 miles    
Events      
Averages and records for this station are not official NWS values.
T = Trace of Precipitation, MM = Missing Value Source: NWS Daily Summary

Daily Weather History Graph

Daily Weather History Graph

Search for Another Location

Airport:

Trip Planner

Search our weather history database for the weather conditions in past years. The results will help you decide how hot, cold, wet, or windy it might be!

Date:

Astronomy

Dec. 14, 2013 Rise Set
Actual Time 7:43 AM CST 4:41 PM CST
Civil Twilight 7:10 AM CST 5:14 PM CST
Nautical Twilight 6:34 AM CST 5:50 PM CST
Astronomical Twilight 5:59 AM CST 6:25 PM CST
Moon 3:06 PM CST (12/14) 5:01 AM CST (12/14)
Length of Visible Light 10h 03m
Length of Day
8h 57m
Waxing Gibbous, 94% of the Moon is Illuminated
Dec 14
Waxing Gibbous
Dec 17
Full
Dec 25
Last Quarter
Jan 1
New
Jan 7
First Quarter

Hourly Weather History & Observations

Time (CST) Temp. Windchill Dew Point Humidity Pressure Visibility Wind Dir Wind Speed Gust Speed Precip Events Conditions
12:15 AM 12.2 °F -1.8 °F 6.8 °F 79% 30.18 in 10.0 mi North 11.5 mph - N/A   Overcast
12:35 AM 12.2 °F -1.0 °F 6.8 °F 79% 30.18 in 10.0 mi North 10.4 mph - N/A   Overcast
12:55 AM 12.2 °F -0.2 °F 6.8 °F 79% 30.17 in 10.0 mi North 9.2 mph - N/A   Overcast
1:15 AM 12.2 °F -1.0 °F 6.8 °F 79% 30.17 in 10.0 mi NNE 10.4 mph - N/A   Overcast
1:35 AM 12.2 °F -1.8 °F 6.8 °F 79% 30.17 in 10.0 mi NNE 11.5 mph - N/A   Overcast
1:55 AM 12.2 °F -1.0 °F 6.8 °F 79% 30.17 in 10.0 mi NNE 10.4 mph - N/A   Overcast
2:15 AM 12.2 °F -0.2 °F 6.8 °F 79% 30.17 in 10.0 mi North 9.2 mph - N/A   Overcast
2:35 AM 12.2 °F 0.7 °F 6.8 °F 79% 30.16 in 10.0 mi North 8.1 mph - N/A   Overcast
2:55 AM 12.2 °F -1.0 °F 6.8 °F 79% 30.17 in 10.0 mi North 10.4 mph - N/A   Overcast
3:15 AM 12.2 °F -1.0 °F 8.6 °F 85% 30.17 in 10.0 mi North 10.4 mph - N/A   Overcast
3:35 AM 12.2 °F -0.2 °F 8.6 °F 85% 30.17 in 10.0 mi North 9.2 mph - N/A   Overcast
3:55 AM 12.2 °F -0.2 °F 6.8 °F 79% 30.17 in 10.0 mi North 9.2 mph - N/A   Overcast
4:15 AM 12.2 °F -1.0 °F 6.8 °F 79% 30.16 in 7.0 mi North 10.4 mph - N/A   Overcast
4:35 AM 12.2 °F -1.0 °F 8.6 °F 85% 30.16 in 2.5 mi North 10.4 mph - N/A   Overcast
4:55 AM 12.2 °F -1.0 °F 8.6 °F 85% 30.16 in 5.0 mi North 10.4 mph - N/A   Overcast
5:15 AM 12.2 °F -2.5 °F 6.8 °F 79% 30.16 in 5.0 mi North 12.7 mph - N/A   Overcast
5:35 AM 12.2 °F 0.7 °F 8.6 °F 85% 30.16 in 3.0 mi North 8.1 mph - N/A   Overcast
5:55 AM 12.2 °F 1.7 °F 6.8 °F 79% 30.15 in 6.0 mi North 6.9 mph - N/A   Overcast
6:15 AM 10.4 °F -2.4 °F 8.6 °F 92% 30.16 in 5.0 mi North 9.2 mph - N/A   Overcast
6:35 AM 10.4 °F -3.3 °F 6.8 °F 85% 30.17 in 6.0 mi North 10.4 mph - N/A   Mostly Cloudy
6:55 AM 10.4 °F -3.3 °F 6.8 °F 85% 30.16 in 10.0 mi North 10.4 mph - N/A   Overcast
7:15 AM 10.4 °F -4.1 °F 6.8 °F 85% 30.17 in 10.0 mi North 11.5 mph - N/A   Overcast
7:35 AM 10.4 °F -4.1 °F 6.8 °F 85% 30.17 in 10.0 mi NNW 11.5 mph - N/A   Overcast
7:55 AM 10.4 °F -4.1 °F 6.8 °F 85% 30.18 in 10.0 mi NNW 11.5 mph - N/A   Overcast
8:15 AM 10.4 °F -4.1 °F 6.8 °F 85% 30.18 in 10.0 mi NNW 11.5 mph - N/A   Overcast
8:35 AM 10.4 °F -3.3 °F 6.8 °F 85% 30.19 in 10.0 mi NNW 10.4 mph - N/A   Overcast
8:55 AM 10.4 °F -3.3 °F 6.8 °F 85% 30.19 in 10.0 mi NNW 10.4 mph - N/A   Overcast
9:15 AM 10.4 °F -2.4 °F 6.8 °F 85% 30.18 in 10.0 mi NNW 9.2 mph - N/A   Overcast
9:35 AM 10.4 °F -1.5 °F 6.8 °F 85% 30.18 in 10.0 mi NNW 8.1 mph - N/A   Overcast
9:55 AM 10.4 °F -2.4 °F 6.8 °F 85% 30.18 in 10.0 mi NNW 9.2 mph - N/A   Overcast
10:15 AM 12.2 °F -1.0 °F 6.8 °F 79% 30.18 in 10.0 mi NNW 10.4 mph - N/A   Overcast
10:35 AM 12.2 °F -0.2 °F 6.8 °F 79% 30.17 in 10.0 mi NNW 9.2 mph - N/A   Overcast
10:55 AM 12.2 °F -0.2 °F 6.8 °F 79% 30.17 in 10.0 mi NNW 9.2 mph - N/A   Overcast
11:15 AM 12.2 °F -1.8 °F 6.8 °F 79% 30.17 in 10.0 mi NW 11.5 mph - N/A   Overcast
11:35 AM 12.2 °F 0.7 °F 6.8 °F 79% 30.15 in 10.0 mi NW 8.1 mph - N/A   Overcast
11:55 AM 12.2 °F -1.0 °F 6.8 °F 79% 30.15 in 10.0 mi NW 10.4 mph - N/A   Overcast
12:15 PM 12.2 °F -0.2 °F 6.8 °F 79% 30.14 in 10.0 mi NW 9.2 mph - N/A   Overcast
12:35 PM 12.2 °F -1.0 °F 6.8 °F 79% 30.13 in 10.0 mi NW 10.4 mph - N/A   Overcast
12:55 PM 12.2 °F -1.0 °F 6.8 °F 79% 30.12 in 10.0 mi NNW 10.4 mph - N/A   Overcast
1:15 PM 12.2 °F -1.8 °F 6.8 °F 79% 30.12 in 10.0 mi NW 11.5 mph - N/A   Overcast
1:35 PM 12.2 °F -1.0 °F 6.8 °F 79% 30.12 in 10.0 mi NW 10.4 mph - N/A   Overcast
1:55 PM 12.2 °F -1.8 °F 6.8 °F 79% 30.11 in 10.0 mi WNW 11.5 mph - N/A   Overcast
2:15 PM 12.2 °F -0.2 °F 6.8 °F 79% 30.10 in 10.0 mi WNW 9.2 mph - N/A   Overcast
2:35 PM 12.2 °F -2.5 °F 6.8 °F 79% 30.11 in 10.0 mi NW 12.7 mph - N/A   Overcast
2:55 PM 12.2 °F -2.5 °F 6.8 °F 79% 30.12 in 10.0 mi WNW 12.7 mph - N/A   Overcast
3:15 PM 12.2 °F -1.0 °F 5.0 °F 73% 30.11 in 10.0 mi WNW 10.4 mph - N/A   Overcast
3:35 PM 12.2 °F -1.8 °F 6.8 °F 79% 30.10 in 10.0 mi WNW 11.5 mph - N/A   Overcast
3:55 PM 12.2 °F -0.2 °F 6.8 °F 79% 30.11 in 10.0 mi WNW 9.2 mph - N/A   Overcast
4:15 PM 12.2 °F -0.2 °F 6.8 °F 79% 30.10 in 10.0 mi WNW 9.2 mph - N/A   Overcast
4:35 PM 12.2 °F -1.0 °F 6.8 °F 79% 30.10 in 10.0 mi WNW 10.4 mph - N/A   Overcast
4:55 PM 12.2 °F -1.0 °F 6.8 °F 79% 30.10 in 10.0 mi West 10.4 mph - N/A   Overcast
5:15 PM 12.2 °F -1.0 °F 6.8 °F 79% 30.10 in 10.0 mi WNW 10.4 mph - N/A   Mostly Cloudy
5:35 PM 12.2 °F -1.8 °F 6.8 °F 79% 30.10 in 10.0 mi WNW 11.5 mph - N/A   Mostly Cloudy
5:55 PM 12.2 °F -2.5 °F 6.8 °F 79% 30.09 in 10.0 mi West 12.7 mph - N/A   Overcast
6:15 PM 12.2 °F -2.5 °F 6.8 °F 79% 30.10 in 10.0 mi WNW 12.7 mph - N/A   Overcast
6:35 PM 12.2 °F -3.1 °F 6.8 °F 79% 30.10 in 10.0 mi WNW 13.8 mph - N/A   Overcast
6:55 PM 12.2 °F -6.3 °F 6.8 °F 79% 30.10 in 10.0 mi NW 20.7 mph - N/A   Overcast
7:15 PM 10.4 °F -7.7 °F 3.2 °F 73% 30.11 in 6.0 mi NW 18.4 mph 24.2 mph N/A   Overcast
7:35 PM 8.6 °F -10.0 °F 1.4 °F 73% 30.11 in 10.0 mi NW 18.4 mph 26.5 mph N/A   Scattered Clouds
7:55 PM 8.6 °F -9.5 °F -0.4 °F 67% 30.11 in 10.0 mi NNW 17.3 mph - N/A   Clear
8:15 PM 6.8 °F -10.0 °F 1.4 °F 79% 30.11 in 10.0 mi NNW 13.8 mph - N/A   Mostly Cloudy
8:35 PM 6.8 °F -10.0 °F 1.4 °F 79% 30.11 in 10.0 mi NW 13.8 mph - N/A   Mostly Cloudy
8:55 PM 6.8 °F -7.8 °F -0.4 °F 72% 30.11 in 10.0 mi NW 10.4 mph - N/A   Clear
9:15 PM 6.8 °F -6.9 °F -0.4 °F 72% 30.11 in 10.0 mi NW 9.2 mph - N/A   Clear
9:35 PM 6.8 °F -7.8 °F -0.4 °F 72% 30.11 in 10.0 mi WNW 10.4 mph - N/A   Clear
9:55 PM 6.8 °F -7.8 °F -0.4 °F 72% 30.10 in 10.0 mi WNW 10.4 mph - N/A   Clear
10:15 PM 5.0 °F -9.1 °F -0.4 °F 78% 30.10 in 10.0 mi NW 9.2 mph - N/A   Clear
10:35 PM 5.0 °F -10.0 °F -0.4 °F 78% 30.10 in 10.0 mi NW 10.4 mph - N/A   Partly Cloudy
10:55 PM 6.8 °F -7.8 °F -0.4 °F 72% 30.10 in 10.0 mi NW 10.4 mph - N/A   Mostly Cloudy
11:15 PM 5.0 °F -11.6 °F -0.4 °F 78% 30.10 in 10.0 mi NW 12.7 mph - N/A   Scattered Clouds
11:35 PM 5.0 °F -12.3 °F -2.2 °F 72% 30.10 in 10.0 mi NNW 13.8 mph - N/A   Clear
11:55 PM 3.2 °F -13.1 °F -2.2 °F 78% 30.11 in 10.0 mi NW 11.5 mph - N/A   Clear